Regional Weather Roundup
Issued by NWS

Home | Current Version | Previous Version | Text Only | Print | Product List | Glossary Off
Versions: 1 2 3 4 5 6 7 8 9 10 11 12 13 14 15 16 17 18 19 20 21 22 23 24 25 26 27 28 29 30 31 32 33 34 35 36 37 38 39 40 41 42 43 44 45 46 47 48 49 50

875
ASUS43 KIND 101709
RWRIN

WEATHER ROUNDUP FOR INDIANA
NATIONAL WEATHER SERVICE INDIANAPOLIS IN
1200 PM EST SUN DEC 10 2017

NOTE: "FAIR" INDICATES FEW OR NO CLOUDS BELOW 12,000 FEET WITH NO
SIGNIFICANT WEATHER AND/OR OBSTRUCTIONS TO VISIBILITY.

* - STATION DOES NOT REPORT WEATHER SUCH AS PRECIPITATION OR FOG.

+ - STATION NOT QUALITY CONTROLLED BY THE NATIONAL WEATHER SERVICE.
    USE DATA WITH CAUTION...ESPECIALLY DEWPOINT AND RELATIVE
    HUMIDITY OBSERVATIONS.

INZ001>003-010>013-019-020-101800-
NORTHWEST INDIANA

CITY           SKY/WX    TMP DP  RH WIND       PRES   REMARKS
GARY /AIRPORT/ PTSUNNY   32  18  55 SW17G29   29.91F WCI  21
KNOX *+        SUNNY     28  19  69 SW15      29.92F WCI  17
LA PORTE +     SUNNY     27  19  71 SW14      29.91F WCI  15
MICHIGAN CITY+ SUNNY     30  19  64 SW13G21   29.92S WCI  20
MONTICELLO +   SUNNY     32  17  54 SW20      29.94F WCI  20
RENSSELAER +   SUNNY     32  19  59 S20G25    29.92F WCI  20
VALPARAISO     SUNNY     30  20  66 SW17      29.91F WCI  18

$$

LMZ046-743>745-101800-
SOUTHERN LAKE MICHIGAN

STATION/POSITION TIME  TEMP    WIND        PRES    WAVE
                       AIR SEA DIR/SP/G            HT
                 (UTC) (F)     (DEG/KT/KT) (MB)    (FT)
BURNS HARBOR     1640   31     220/ 17/ 22 1013.2F
MICHIGAN CITY    1640   28     200/ 18/ 23   N/A

$$

INZ004-005-014>016-021>024-101800-
NORTH CENTRAL INDIANA

CITY           SKY/WX    TMP DP  RH WIND       PRES   REMARKS
ELKHART        MOSUNNY   27  18  69 SW13G24   29.92F WCI  16
GOSHEN         SUNNY     26  18  71 SW15      29.92F WCI  14
LOGANSPORT +   PTSUNNY   30  19  64 SW21G29   29.96F WCI  17
PERU/GRISSOM   CLOUDY    29  19  66 SW23      29.94F WCI  15
ROCHESTER +    CLOUDY    32  21  64 SW9G18    29.93F WCI  24
SOUTH BEND     SUNNY     25  19  78 SW17      29.91F WCI  12
WARSAW +       CLOUDY    27  18  69 SW10G17   29.93F WCI  17

$$

INZ006>009-017-018-025>027-101800-
NORTHEAST INDIANA

CITY           SKY/WX    TMP DP  RH WIND       PRES   REMARKS
AUBURN +       CLOUDY    28  18  64 SW9       29.95F WCI  20
FORT WAYNE     CLOUDY    28  20  71 SW21      29.95F WCI  15
HUNTINGTON +   CLOUDY    28  18  66 SW15G21   29.95F WCI  16
KENDALLVILLE + CLOUDY    26  18  72 SW12      29.92F WCI  15

$$

INZ028-029-035-036-043>045-051>053-101800-
WEST CENTRAL INDIANA

CITY           SKY/WX    TMP DP  RH WIND       PRES   REMARKS
CRAWFORDSVL +  MOSUNNY   29  18  62 MISG        N/A
GREENCASTLE +  CLOUDY    32  18  55 SW9G18    30.01F WCI  24
LAFAYETTE      SUNNY     30  18  60 SW17G24   29.96F WCI  18
TERRE HAUTE    CLOUDY    34  18  52 SW14G23   30.03F WCI  25

$$

INZ030>032-037>040-046>048-054>057-064-065-101800-
CENTRAL INDIANA

CITY           SKY/WX    TMP DP  RH WIND       PRES   REMARKS
COLUMBUS       PTSUNNY   30  16  55 SW21G30   30.09F WCI  17
FRANKFORT +    CLOUDY    33  20  56 SW16G24   29.98F WCI  23
GREENWOOD *+   CLOUDY    32  21  63 SW16G22   30.04F WCI  22
INDIANAPOLIS   CLOUDY    30  17  58 SW20      30.02F WCI  17
-EAGLE CREEK   CLOUDY    30  17  58 SW12G22   30.01F WCI  20
KOKOMO +       CLOUDY    31  20  63 SW21G26   29.96F WCI  18
MARION +       CLOUDY    27  19  71 SW18      29.98F HAZE    WCI  14
MT COMFORT *+  CLOUDY    28  21  74 SW18G24   30.02F WCI  16
SHELBYVILLE    CLOUDY    30  17  58 SW20      30.04F WCI  17
ZIONSVILLE +   CLOUDY    29  17  61 SW16G29   29.99F WCI  17

$$

INZ033-034-041-042-049-050-058-059-101800-
EAST CENTRAL INDIANA

CITY           SKY/WX    TMP DP  RH WIND       PRES   REMARKS
MUNCIE         CLOUDY    28  17  63 SW15G28   29.98F WCI  16
RICHMOND +     CLOUDY    28  19  69 SW17G24   30.03F WCI  16

$$

INZ060-061-067>069-081>083-085>088-101800-
SOUTHWEST INDIANA

CITY           SKY/WX    TMP DP  RH WIND       PRES   REMARKS
EVANSVILLE     SUNNY     36  22  56 S17G26    30.13F WCI  26
HUNTINGBURG +  SUNNY     34  21  59 SW17G23   30.13F WCI  23
WASHINGTON +   SUNNY     35  19  52 SW20G28   30.08F WCI  24

$$

INZ062-063-066-070>080-084-089>092-101800-
SOUTH CENTRAL AND SOUTHEAST INDIANA

CITY           SKY/WX    TMP DP  RH WIND       PRES   REMARKS
BEDFORD +      MOSUNNY   34  18  51 SW15G23   30.08  WCI  24
BLOOMINGTON    MOSUNNY   32  17  54 SW17G24   30.05F WCI  21
MADISON *+     CLOUDY    32  19  59 SW16      30.13F WCI  21
NORTH VERNON + CLOUDY    28  18  64 SW18      30.10F WCI  16
SEYMOUR +      PTSUNNY   34  19  55 SW18G24   30.11F WCI  23

$$





USA.gov is the U.S. government's official web portal to all federal, state and local government web resources and services.